Tracking 25710 objects as of 6-Jul-2022
HD Live streaming from Space Station
objects crossing your sky now

STARLINK-3059

Track STARLINK-3059 now!
10-day predictions
STARLINK-3059 is classified as:


NORAD ID: 49181
Int'l Code: 2021-082BD
Perigee: 576.8 km
Apogee: 581.5 km
Inclination: 70.0 °
Period: 96.1 minutes
Semi major axis: 6950 km
RCS: Unknown
Launch date: September 14, 2021
Source: United States (US)
Launch site: AIR FORCE WESTERN TEST RANGE (AFWTR)
aabbcc
Your satellite tracking list
Your tracking list is empty




NASA's NSSDC Master Catalog

Two Line Element Set (TLE):
1 49181U 21082BD  22186.85713531 -.00000531  00000-0 -36708-4 0  9997
2 49181  69.9997  80.2131 0003360 263.7069  96.3708 14.98340692 46025
Source of the keplerian elements: AFSPC